SES-11 (ECHOSTAR 105)

Last updated on Mon Oct 20 2025 00:02:49 GMT+0000 (Coordinated Universal Time)

1 42967U 17063A 25292.26119172 -.00000092 00000+0 00000+0 0 9994 2 42967 0.0225 300.8198 0002610 271.6412 164.6164 1.00272423 29303
UTC large
Height (km)
Speed (km/s)
/
Latitude / Longitude
Inclination (degrees)
Orbital Period (minutes)
Azimuth
Elevation
Range (km)
Doppler Factor

Next 0 passes for location: London (51.5072 / 0.1276)

Sorry there are no passes over London.